Regional Weather Roundup
Issued by NWS

Home | Current Version | Previous Version | Graphics & Text | Print | Product List | Glossary On
Versions: 1 2 3 4 5 6 7 8 9 10 11 12 13 14 15 16 17 18 19 20 21 22 23 24 25 26 27 28 29 30 31 32 33 34 35 36 37 38 39 40 41 42 43 44 45 46 47 48 49 50
000
ASUS43 KDTX 021101
RWRMI
MICHIGAN HOURLY REGIONAL WEATHER ROUNDUP
NATIONAL WEATHER SERVICE DETROIT/PONTIAC MI
700 AM EDT WED SEP 02 2015

NOTE: "FAIR" INDICATES FEW OR NO CLOUDS BELOW 12,000 FEET WITH NO
SIGNIFICANT WEATHER AND/OR OBSTRUCTION TO VISIBILITY.

MIZ047>049-052>055-059>063-066>070-074>076-081>083-021200-
SOUTHEAST LOWER MICHIGAN

CITY           SKY/WX    TMP DP  RH WIND       PRES   REMARKS
ADRIAN         CLEAR     66  65  96 SW3       30.07S FOG
ALMA           PTCLDY    70  69  97 SW3       30.02R FOG
ANN ARBOR      FOG       64  63  96 CALM      30.05S VSB 1/4
BAD AXE        CLEAR     67  67  99 CALM      30.03S FOG
DETROIT CITY   CLEAR     72  68  87 CALM      30.05R
DETROIT        PTCLDY    70  67  90 S6        30.06R FOG
FLINT          CLEAR     71  67  87 S5        30.04R FOG
GROSSE ILE     CLEAR     70  66  88 CALM      30.05R FOG
HILLSDALE      PTCLDY    70  70 100 CALM      30.08R
HOWELL         PTCLDY    70  68  96 CALM      30.05S FOG

CITY           SKY/WX    TMP DP  RH WIND       PRES   REMARKS
JACKSON        PTCLDY    70  67  90 SW6       30.05S
LAMBERTVILLE   CLEAR     69  66  89 CALM      30.07S
LANSING        LGT RAIN  72  69  90 SW7       30.03F
LAPEER           N/A     62  62 100 CALM      30.04S FOG
MASON          MOCLDY    71  67  88 CALM      30.05R
MONROE         CLEAR     67  65  95 CALM      30.06R FOG
MT. CLEMENS    CLEAR     71  69  93 SW3       30.03R FOG
PONTIAC        PTCLDY    68  66  93 CALM      30.05R FOG
PORT HOPE        N/A     70  68  93 SW7       29.99S
PORT HURON     FOG       63  63 100 CALM      30.04R VSB 1/2
TRI CITIES     CLEAR     71  68  90 SW5       30.02R FOG
MIDLAND        MOCLDY    69  67  96 CALM      30.01R FOG
TROY           CLEAR     71  69  93 CALM      30.06S
SAGINAW HB     CLEAR     68  68 100 S3        30.01S FOG
$$
MIZ043>046-050>051-056>058-064>065-071>073-077>080-021200-
SOUTHWEST LOWER MICHIGAN

CITY           SKY/WX    TMP DP  RH WIND       PRES   REMARKS
BATTLE CREEK   CLEAR     71  68  90 SW7       30.05S
BENTON HARBOR  CLEAR     69  66  90 CALM      30.04R
BIG RAPIDS     FOG       68  68  98 CALM      30.01R VSB 3/4
COLDWATER      CLEAR     69  68  97 SW3       30.07R
FREMONT        FAIR      69  69 100 CALM      30.00S FOG
HOLLAND        PTCLDY    74  69  85 SW7       30.03R
GRAND RAPIDS   PTCLDY    73  70  90 SW7       30.02S
IONIA          FAIR      71  70  98 S6        30.02S
KALAMAZOO      CLEAR     70  67  90 SW7       30.05R
LUDINGTON      CLEAR     71  68  90 SW5       29.99R FOG
MARSHALL       PTCLDY    70  68  93 SW3       30.05S
MOUNT PLEASANT CLEAR     72  69  92 CALM      30.01R FOG
MUSKEGON       PTCLDY    73  69  87 SW9       30.00R
SOUTH HAVEN    CLEAR     73  68  84 SW5       30.04R
$$
MIZ016>042-021200-
NORTHERN LOWER MICHIGAN

CITY           SKY/WX    TMP DP  RH WIND       PRES   REMARKS
ALPENA         CLOUDY    70  68  93 SW5       29.98R FOG
BEAVER ISLAND  PTCLDY    68  67  95 W3        29.96R FOG
BELLAIRE       FOG       66  65  96 CALM      29.97S VSB<1/4
CADILLAC       CLOUDY    69  69  99 S5        30.01R FOG
CHARLEVOIX     PTCLDY    70  70  98 CALM      29.99R FOG
FRANKFORT      CLEAR     69  68  96 CALM      29.96S FOG
GAYLORD        CLEAR     69  69 100 S3        30.00S FOG
GRAYLING       FOG       61  60  97 CALM      30.01S VSB 3/4
HARBOR SPRINGS CLEAR     68  67  97 CALM      29.96S FOG
HOUGHTON LAKE  CLEAR     69  68  96 S3        30.02R FOG
MANISTEE         N/A     66  63  88 E3        29.98S VSB 1/2
OSCODA         CLEAR     68  67  98 SW3       29.98S FOG
PELLSTON       FOG       66  65  96 CALM      29.97R VSB 3/4
ROGERS CITY    PTCLDY    71  68  90 SW5       29.97S
TRAVERSE CITY  MOCLDY    74  69  85 S3        29.96R
$$
MIZ007>008-015-021200-
EASTERN UPPER MICHIGAN

CITY           SKY/WX    TMP DP  RH WIND       PRES   REMARKS
KINROSS        CLOUDY    68  66  94 CALM      29.97R VSB<1/4
MACKINAC ISLAN MOCLDY    70  69  96 W5        29.96S FOG
NEWBERRY       FOG       61  61  99 CALM      29.96R VSB 1/4
S. S. MARIE    FOG       69  68  96 CALM      29.96R VSB 1
$$
MIZ004>006-011>014-085-021200-
CENTRAL UPPER MICHIGAN

CITY           SKY/WX    TMP DP  RH WIND       PRES   REMARKS
MANISTIQUE     FOG       59  58  97 CALM      29.95R VSB 1/4
ESCANABA       MOCLDY    63  61  94 CALM      29.95R
MENOMINEE      PTCLDY    70  66  88 CALM      29.95R
SAWYER-GWINN   FOG       63  61  94 MISG      29.99R VSB 1
$$
MIZ001>003-009>011-084-021200-
WESTERN UPPER MICHIGAN

CITY           SKY/WX    TMP DP  RH WIND       PRES   REMARKS
IRON MOUNTAIN  MOCLDY    65  63  93 CALM      29.97R FOG
HOUGHTON       CLEAR     57  55  93 NE3       29.97R
IRONWOOD       CLOUDY    66  66 100 N6        29.94R
$$

ABBREVIATIONS USED IN REMARKS
   TC - TEMPERATURE IN CELSIUS
  WCI - WIND CHILL INDEX
   HX - HEAT INDEX
  VSB - VISIBILITY




USA.gov is the U.S. government's official web portal to all federal, state and local government web resources and services.